Home > Weather > Carouge > Past weeks

Flag for Switzerland Past Weather in Carouge, Geneva, Switzerland — Yesterday and Last 2 Weeks

Now
65 °F

Passing clouds.


Feels Like: 65 °F
Forecast: 62 / 78 °F
Wind: No wind

Location: Geneve-Cointrin

Current Time: Jul 26, 2016 at 2:48:55 AM

Latest Report: Jul 26, 2016 at 2:00 AM


Visibility: 19 mi

Pressure: 30.11 "Hg

Humidity: 84%

Dew Point: 60 °F

Location of CarougeLocation

Past Weather in Carouge — Graph

°F

Carouge Temperature Yesterday

Maximum temperature yesterday: 81 °F (at 4:00 PM)
Minimum temperature yesterday: 63 °F (at 6:00 AM)
Average temperature yesterday: 72 °F

High & Low Weather Summary for the Past Weeks

 TemperatureHumidityPressure
High90 °F (Jul 20, 5:00 PM)96% (Jul 13, 2:00 AM)30.31 "Hg (Jul 13, 2:00 AM)
Low47 °F (Jul 15, 6:00 AM)21% (Jul 18, 6:00 PM)29.86 "Hg (Jul 11, 6:00 PM)
Average68 °F69%30.08 "Hg
* Reported Jul 11 1:00 AM — Jul 26 1:00 AM, Carouge, Weather by CustomWeather, © 2016

Note: Actual official high and low records may vary slightly from our data, if they occured in-between our weather recording intervals... More about our weather records

Advertising

Carouge Weather History for the Previous 24 Hours

Scroll right to see more
 ConditionsComfort  
Time TempWeatherWind HumidityBarometerVisibility
1:00 AM
Tue, Jul 26
67 °FMild.1 mph77%30.11 "HgN/A
12:00 AM70 °FMild.3 mph68%30.10 "HgN/A
11:00 PM
Mon, Jul 25
71 °FPassing clouds.1 mph70%30.10 "Hg22 mi
10:00 PM74 °FMild.3 mph59%30.08 "HgN/A
9:00 PM75 °FMild.5 mph57%30.06 "HgN/A
8:00 PM77 °FPassing clouds.5 mph53%30.05 "Hg25 mi
7:00 PM80 °FWarm.6 mph51%30.03 "HgN/A
6:00 PM81 °FWarm.5 mph49%30.03 "HgN/A
5:00 PM79 °FScattered clouds.6 mph52%30.04 "Hg22 mi
4:00 PM81 °FWarm.7 mph50%30.04 "HgN/A
3:00 PM80 °FWarm.6 mph48%30.04 "HgN/A
2:00 PM81 °FPassing clouds.6 mph53%30.05 "Hg25 mi
1:00 PM78 °FWarm.8 mph59%30.06 "HgN/A
12:00 PM76 °FMild.7 mph62%30.07 "HgN/A
11:00 AM73 °FPassing clouds.6 mph64%30.08 "Hg25 mi
10:00 AM71 °FMild.5 mph71%30.10 "HgN/A
9:00 AM69 °FMild.1 mph79%30.11 "HgN/A
8:00 AM66 °FPassing clouds.2 mph87%30.11 "Hg25 mi
7:00 AM64 °FMild.2 mph91%30.11 "HgN/A
6:00 AM63 °FMild.2 mph93%30.11 "HgN/A
5:00 AM63 °FPassing clouds.1 mph93%30.11 "Hg25 mi
4:00 AM64 °FMild.2 mph92%30.11 "HgN/A
3:00 AM66 °FMild.2 mph90%30.11 "HgN/A
2:00 AM68 °FPassing clouds.2 mph85%30.11 "Hg25 mi
Weather by CustomWeather, © 2016

See weather overviewHow to use our weather pages